PDT5792 KMOB-KCLT

Flight info

Callsign PDT5792
Flight time 1h 19m
Altitude 35000
Route CATLN HAALO BESTT JONZE5
Aircraft E145/M-SDFGIRW/S

Departure

Time 2026-05-04 19:27
Airport Mobile Regional Airport (KMOB)

Arrival

Time 2026-05-04 20:46
Airport Charlotte Douglas International Airport (KCLT)
Time Latitude Longitude Altitude Speed Heading
2026-05-04 19:00 30.68325 -88.24568 212 ft 0 kts 166°
2026-05-04 19:15 30.68324 -88.24568 211 ft 0 kts 166°
2026-05-04 19:15 30.68335 -88.24571 211 ft 2 kts 166°
2026-05-04 19:16 30.68350 -88.24576 211 ft 2 kts 166°
2026-05-04 19:16 30.68364 -88.24580 212 ft 2 kts 166°
2026-05-04 19:16 30.68374 -88.24582 211 ft 1 kts 166°
2026-05-04 19:16 30.68387 -88.24589 211 ft 2 kts 137°
2026-05-04 19:17 30.68396 -88.24603 211 ft 2 kts 109°
2026-05-04 19:17 30.68398 -88.24616 211 ft 1 kts 90°
2026-05-04 19:17 30.68398 -88.24617 211 ft 0 kts 90°
2026-05-04 19:20 30.68398 -88.24607 211 ft 3 kts 91°
2026-05-04 19:21 30.68398 -88.24523 212 ft 15 kts 89°
2026-05-04 19:21 30.68398 -88.24392 213 ft 17 kts 89°
2026-05-04 19:21 30.68424 -88.24280 213 ft 14 kts 33°
2026-05-04 19:21 30.68517 -88.24236 215 ft 14 kts 21°
2026-05-04 19:22 30.68612 -88.24264 215 ft 16 kts 324°
2026-05-04 19:22 30.68708 -88.24346 215 ft 18 kts 324°
2026-05-04 19:22 30.68820 -88.24440 213 ft 21 kts 324°
2026-05-04 19:22 30.68946 -88.24545 211 ft 20 kts 324°
2026-05-04 19:23 30.69074 -88.24648 207 ft 23 kts 325°
2026-05-04 19:23 30.69216 -88.24758 202 ft 25 kts 327°
2026-05-04 19:23 30.69369 -88.24874 198 ft 26 kts 326°
2026-05-04 19:23 30.69527 -88.25001 196 ft 28 kts 324°
2026-05-04 19:24 30.69681 -88.25122 199 ft 25 kts 326°
2026-05-04 19:24 30.69800 -88.25217 203 ft 19 kts 324°
2026-05-04 19:24 30.69910 -88.25311 206 ft 19 kts 324°
2026-05-04 19:24 30.70023 -88.25403 209 ft 20 kts 324°
2026-05-04 19:25 30.70127 -88.25486 208 ft 12 kts 345°
2026-05-04 19:25 30.70166 -88.25474 208 ft 0 kts 45°
2026-05-04 19:25 30.70169 -88.25470 208 ft 2 kts 45°
2026-05-04 19:26 30.70200 -88.25421 208 ft 13 kts 57°
2026-05-04 19:26 30.70169 -88.25349 208 ft 15 kts 145°
2026-05-04 19:26 30.69887 -88.25117 204 ft 87 kts 143°
2026-05-04 19:26 30.69229 -88.24568 212 ft 143 kts 146°
2026-05-04 19:27 30.68349 -88.23859 557 ft 161 kts 146°
2026-05-04 19:27 30.67425 -88.23093 1205 ft 168 kts 145°
2026-05-04 19:27 30.66429 -88.22255 1696 ft 190 kts 145°
2026-05-04 19:27 30.65336 -88.21372 2541 ft 191 kts 144°
2026-05-04 19:28 30.64377 -88.20228 2983 ft 209 kts 128°
2026-05-04 19:28 30.63770 -88.18556 3052 ft 248 kts 96°
2026-05-04 19:28 30.64148 -88.16567 3600 ft 261 kts 60°
2026-05-04 19:28 30.65442 -88.15108 4374 ft 264 kts 28°
2026-05-04 19:29 30.67186 -88.14475 4981 ft 272 kts 18°
2026-05-04 19:29 30.68845 -88.13364 5074 ft 270 kts 39°
2026-05-04 19:29 30.70344 -88.12014 5376 ft 269 kts 38°
2026-05-04 19:29 30.71820 -88.10700 5812 ft 272 kts 38°
2026-05-04 19:30 30.73334 -88.09355 6420 ft 274 kts 38°
2026-05-04 19:30 30.74831 -88.08026 7146 ft 275 kts 37°
2026-05-04 19:30 30.76354 -88.06673 7860 ft 277 kts 37°
2026-05-04 19:30 30.77905 -88.05294 8485 ft 282 kts 37°
2026-05-04 19:31 30.79473 -88.03899 9094 ft 287 kts 36°
2026-05-04 19:31 30.81063 -88.02485 9763 ft 289 kts 36°
2026-05-04 19:31 30.82654 -88.01070 10368 ft 293 kts 36°
2026-05-04 19:31 30.84306 -87.99599 10803 ft 304 kts 36°
2026-05-04 19:32 30.86017 -87.98075 11236 ft 314 kts 36°
2026-05-04 19:32 30.87783 -87.96501 11665 ft 323 kts 36°
2026-05-04 19:32 30.89581 -87.94898 12028 ft 334 kts 36°
2026-05-04 19:32 30.91438 -87.93241 12553 ft 337 kts 36°
2026-05-04 19:33 30.93314 -87.91567 13065 ft 342 kts 36°
2026-05-04 19:33 30.95196 -87.89886 13666 ft 343 kts 35°
2026-05-04 19:33 30.97095 -87.88189 14193 ft 346 kts 35°
2026-05-04 19:33 30.99015 -87.86472 14693 ft 349 kts 35°
2026-05-04 19:34 31.00939 -87.84751 15241 ft 351 kts 34°
2026-05-04 19:34 31.02879 -87.83017 15706 ft 354 kts 34°
2026-05-04 19:34 31.04843 -87.81260 16164 ft 358 kts 34°
2026-05-04 19:34 31.06813 -87.79496 16677 ft 359 kts 34°
2026-05-04 19:35 31.08800 -87.77716 17155 ft 362 kts 33°
2026-05-04 19:35 31.10805 -87.75919 17589 ft 365 kts 33°
2026-05-04 19:35 31.12822 -87.74107 18140 ft 364 kts 32°
2026-05-04 19:35 31.14825 -87.72310 18677 ft 364 kts 33°
2026-05-04 19:36 31.16841 -87.70498 19202 ft 364 kts 32°
2026-05-04 19:36 31.18829 -87.68713 19731 ft 364 kts 32°
2026-05-04 19:36 31.20832 -87.66911 20255 ft 364 kts 32°
2026-05-04 19:36 31.22834 -87.65109 20774 ft 364 kts 31°
2026-05-04 19:37 31.24832 -87.63310 21304 ft 363 kts 31°
2026-05-04 19:37 31.26827 -87.61513 21829 ft 362 kts 31°
2026-05-04 19:37 31.28823 -87.59715 22320 ft 362 kts 30°
2026-05-04 19:37 31.30763 -87.57802 22790 ft 371 kts 41°
2026-05-04 19:38 31.32270 -87.55363 23293 ft 375 kts 50°
2026-05-04 19:38 31.33739 -87.52837 23777 ft 375 kts 49°
2026-05-04 19:38 31.35210 -87.50307 24288 ft 375 kts 49°
2026-05-04 19:38 31.36659 -87.47819 24773 ft 374 kts 48°
2026-05-04 19:39 31.38123 -87.45302 25217 ft 375 kts 48°
2026-05-04 19:39 31.39593 -87.42773 25634 ft 376 kts 48°
2026-05-04 19:39 31.41055 -87.40256 26148 ft 374 kts 47°
2026-05-04 19:39 31.42517 -87.37737 26589 ft 374 kts 47°
2026-05-04 19:40 31.43974 -87.35229 27021 ft 374 kts 47°
2026-05-04 19:40 31.45426 -87.32725 27366 ft 376 kts 47°
2026-05-04 19:40 31.46901 -87.30177 27771 ft 376 kts 47°
2026-05-04 19:40 31.48367 -87.27646 28236 ft 374 kts 47°
2026-05-04 19:41 31.49812 -87.25150 28609 ft 375 kts 46°
2026-05-04 19:41 31.51277 -87.22616 29052 ft 373 kts 47°
2026-05-04 19:41 31.52719 -87.20123 29416 ft 374 kts 47°
2026-05-04 19:41 31.54181 -87.17592 29737 ft 375 kts 46°
2026-05-04 19:42 31.55641 -87.15061 30150 ft 373 kts 46°
2026-05-04 19:42 31.57077 -87.12571 30563 ft 371 kts 45°
2026-05-04 19:42 31.58523 -87.10064 30944 ft 370 kts 45°
2026-05-04 19:42 31.59950 -87.07586 31292 ft 370 kts 45°
2026-05-04 19:43 31.61403 -87.05061 31711 ft 368 kts 44°
2026-05-04 19:43 31.62813 -87.02612 32051 ft 368 kts 44°
2026-05-04 19:43 31.64251 -87.00110 32432 ft 365 kts 44°
2026-05-04 19:43 31.65660 -86.97661 32723 ft 366 kts 43°
2026-05-04 19:44 31.67092 -86.95168 33026 ft 367 kts 44°
2026-05-04 19:44 31.68498 -86.92713 33408 ft 364 kts 43°
2026-05-04 19:44 31.69920 -86.90237 33731 ft 364 kts 43°
2026-05-04 19:44 31.71332 -86.87775 33980 ft 366 kts 43°
2026-05-04 19:45 31.72744 -86.85308 34302 ft 365 kts 43°
2026-05-04 19:45 31.74172 -86.82812 34690 ft 363 kts 43°
2026-05-04 19:45 31.75570 -86.80369 35006 ft 361 kts 42°
2026-05-04 19:46 31.78418 -86.75391 35019 ft 371 kts 43°
2026-05-04 19:46 31.81340 -86.70274 35027 ft 382 kts 43°
2026-05-04 19:47 31.84336 -86.65017 35032 ft 392 kts 44°
2026-05-04 19:47 31.87421 -86.59596 35029 ft 402 kts 44°
2026-05-04 19:48 31.90556 -86.54079 35028 ft 411 kts 44°
2026-05-04 19:48 31.93747 -86.48458 35023 ft 420 kts 45°
2026-05-04 19:49 31.97031 -86.42661 35022 ft 428 kts 45°
2026-05-04 19:49 32.00359 -86.36780 35022 ft 436 kts 46°
2026-05-04 19:50 32.03730 -86.30813 35001 ft 442 kts 46°
2026-05-04 19:50 32.07167 -86.24719 35005 ft 447 kts 47°
2026-05-04 19:51 32.10604 -86.18617 35020 ft 452 kts 47°
2026-05-04 19:51 32.14093 -86.12411 35015 ft 457 kts 47°
2026-05-04 19:52 32.17626 -86.06118 35016 ft 462 kts 47°
2026-05-04 19:52 32.21192 -85.99754 35001 ft 467 kts 47°
2026-05-04 19:53 32.24764 -85.93369 35015 ft 471 kts 48°
2026-05-04 19:53 32.28397 -85.86865 35011 ft 475 kts 48°
2026-05-04 19:54 32.32046 -85.80318 35006 ft 478 kts 48°
2026-05-04 19:54 32.35706 -85.73742 35018 ft 481 kts 49°
2026-05-04 19:55 32.39401 -85.67093 35017 ft 485 kts 49°
2026-05-04 19:55 32.43102 -85.60421 35030 ft 487 kts 49°
2026-05-04 19:56 32.46817 -85.53709 35023 ft 490 kts 49°
2026-05-04 19:56 32.50545 -85.46961 35008 ft 484 kts 50°
2026-05-04 19:57 32.54220 -85.40301 35041 ft 484 kts 50°
2026-05-04 19:57 32.57890 -85.33637 35039 ft 484 kts 51°
2026-05-04 19:58 32.61533 -85.27010 35023 ft 477 kts 51°
2026-05-04 19:58 32.65138 -85.20439 35025 ft 471 kts 51°
2026-05-04 19:59 32.68675 -85.13982 34891 ft 465 kts 51°
2026-05-04 19:59 32.70409 -85.10812 35003 ft 459 kts 51°
2026-05-04 19:59 32.72151 -85.07626 35015 ft 456 kts 51°
2026-05-04 20:00 32.75596 -85.01318 35021 ft 460 kts 51°
2026-05-04 20:00 32.79092 -84.94902 35029 ft 464 kts 51°
2026-05-04 20:01 32.82601 -84.88451 35032 ft 468 kts 51°
2026-05-04 20:01 32.86138 -84.81940 35017 ft 472 kts 51°
2026-05-04 20:02 32.89706 -84.75358 35036 ft 475 kts 51°
2026-05-04 20:02 32.93283 -84.68750 35030 ft 478 kts 52°
2026-05-04 20:03 32.96886 -84.62079 35009 ft 480 kts 52°
2026-05-04 20:03 33.00986 -84.55962 35018 ft 467 kts 37°
2026-05-04 20:04 33.05735 -84.50745 35023 ft 465 kts 38°
2026-05-04 20:04 33.10418 -84.45433 35022 ft 463 kts 38°
2026-05-04 20:05 33.15073 -84.40132 35020 ft 462 kts 38°
2026-05-04 20:05 33.19696 -84.34860 35028 ft 460 kts 39°
2026-05-04 20:06 33.24309 -84.29591 35028 ft 459 kts 39°
2026-05-04 20:06 33.28915 -84.24320 35021 ft 457 kts 39°
2026-05-04 20:07 33.33493 -84.19075 35031 ft 456 kts 39°
2026-05-04 20:07 33.38058 -84.13837 35027 ft 456 kts 39°
2026-05-04 20:08 33.42612 -84.08601 35022 ft 454 kts 39°
2026-05-04 20:08 33.47186 -84.03336 35015 ft 454 kts 39°
2026-05-04 20:09 33.51707 -83.98123 35011 ft 453 kts 39°
2026-05-04 20:09 33.56217 -83.92853 35005 ft 455 kts 43°
2026-05-04 20:10 33.59789 -83.86533 35015 ft 463 kts 61°
2026-05-04 20:10 33.61778 -83.79181 35021 ft 467 kts 74°
2026-05-04 20:11 33.63524 -83.71697 35016 ft 466 kts 71°
2026-05-04 20:11 33.65345 -83.64243 35013 ft 466 kts 71°
2026-05-04 20:12 33.67453 -83.56898 35005 ft 462 kts 60°
2026-05-04 20:12 33.70647 -83.50303 35011 ft 459 kts 56°
2026-05-04 20:13 33.73863 -83.43712 35017 ft 459 kts 56°
2026-05-04 20:13 33.77085 -83.37083 35017 ft 459 kts 56°
2026-05-04 20:14 33.80302 -83.30450 35009 ft 459 kts 56°
2026-05-04 20:14 33.83507 -83.23833 35005 ft 459 kts 56°
2026-05-04 20:14 33.85255 -83.20612 34824 ft 452 kts 52°
2026-05-04 20:15 33.86956 -83.17517 34594 ft 446 kts 53°
2026-05-04 20:15 33.88651 -83.14411 34344 ft 440 kts 53°
2026-05-04 20:15 33.90321 -83.11345 34054 ft 434 kts 53°
2026-05-04 20:15 33.91948 -83.08352 33768 ft 429 kts 53°
2026-05-04 20:16 33.93589 -83.05331 33481 ft 425 kts 53°
2026-05-04 20:16 33.95186 -83.02387 33216 ft 421 kts 53°
2026-05-04 20:16 33.96780 -82.99448 32995 ft 420 kts 53°
2026-05-04 20:16 33.98387 -82.96483 32778 ft 419 kts 52°
2026-05-04 20:17 33.99969 -82.93560 32559 ft 418 kts 52°
2026-05-04 20:17 34.01539 -82.90659 32345 ft 418 kts 52°
2026-05-04 20:17 34.03135 -82.87705 32083 ft 418 kts 52°
2026-05-04 20:17 34.04711 -82.84786 31809 ft 417 kts 52°
2026-05-04 20:18 34.06298 -82.81847 31537 ft 417 kts 52°
2026-05-04 20:18 34.07864 -82.78941 31271 ft 417 kts 52°
2026-05-04 20:18 34.09452 -82.75994 30995 ft 417 kts 52°
2026-05-04 20:18 34.11032 -82.73059 30737 ft 417 kts 52°
2026-05-04 20:19 34.12611 -82.70124 30470 ft 417 kts 52°
2026-05-04 20:19 34.14168 -82.67226 30207 ft 417 kts 52°
2026-05-04 20:19 34.15742 -82.64295 29947 ft 417 kts 52°
2026-05-04 20:19 34.17315 -82.61364 29702 ft 417 kts 52°
2026-05-04 20:20 34.18892 -82.58424 29454 ft 417 kts 52°
2026-05-04 20:20 34.20461 -82.55493 29202 ft 417 kts 52°
2026-05-04 20:20 34.22039 -82.52545 28949 ft 416 kts 52°
2026-05-04 20:20 34.23595 -82.49635 28703 ft 416 kts 52°
2026-05-04 20:21 34.25170 -82.46689 28455 ft 416 kts 52°
2026-05-04 20:21 34.26739 -82.43750 28212 ft 415 kts 52°
2026-05-04 20:21 34.29851 -82.37911 27721 ft 415 kts 52°
2026-05-04 20:22 34.31417 -82.34968 27478 ft 414 kts 53°
2026-05-04 20:22 34.32982 -82.32025 27214 ft 414 kts 53°
2026-05-04 20:22 34.34516 -82.29137 26959 ft 414 kts 53°
2026-05-04 20:22 34.36075 -82.26199 26700 ft 414 kts 53°
2026-05-04 20:23 34.37632 -82.23264 26436 ft 413 kts 53°
2026-05-04 20:23 34.39178 -82.20345 26183 ft 413 kts 53°
2026-05-04 20:23 34.40724 -82.17426 25928 ft 412 kts 53°
2026-05-04 20:23 34.42266 -82.14512 25670 ft 411 kts 53°
2026-05-04 20:24 34.43786 -82.11635 25411 ft 410 kts 53°
2026-05-04 20:24 34.45316 -82.08740 25158 ft 409 kts 53°
2026-05-04 20:24 34.46843 -82.05846 24905 ft 408 kts 53°
2026-05-04 20:24 34.48368 -82.02954 24633 ft 407 kts 53°
2026-05-04 20:25 34.49889 -82.00066 24408 ft 405 kts 53°
2026-05-04 20:25 34.51395 -81.97205 24187 ft 403 kts 53°
2026-05-04 20:25 34.52897 -81.94351 23981 ft 401 kts 53°
2026-05-04 20:25 34.54388 -81.91515 23769 ft 399 kts 53°
2026-05-04 20:26 34.55883 -81.88670 23551 ft 398 kts 53°
2026-05-04 20:26 34.57364 -81.85848 23341 ft 396 kts 53°
2026-05-04 20:26 34.58841 -81.83031 23132 ft 395 kts 53°
2026-05-04 20:26 34.60309 -81.80231 22923 ft 394 kts 52°
2026-05-04 20:27 34.61754 -81.77471 22709 ft 392 kts 53°
2026-05-04 20:27 34.63213 -81.74683 22501 ft 391 kts 52°
2026-05-04 20:27 34.64670 -81.71896 22296 ft 390 kts 53°
2026-05-04 20:27 34.66124 -81.69114 22053 ft 389 kts 53°
2026-05-04 20:28 34.67570 -81.66344 21793 ft 388 kts 53°
2026-05-04 20:28 34.69022 -81.63559 21531 ft 386 kts 53°
2026-05-04 20:28 34.70438 -81.60842 21276 ft 385 kts 53°
2026-05-04 20:28 34.71870 -81.58092 21019 ft 384 kts 53°
2026-05-04 20:29 34.73288 -81.55367 20764 ft 382 kts 53°
2026-05-04 20:29 34.74703 -81.52650 20507 ft 381 kts 53°
2026-05-04 20:29 34.76358 -81.50182 20257 ft 373 kts 41°
2026-05-04 20:29 34.78154 -81.47900 20006 ft 372 kts 41°
2026-05-04 20:30 34.79928 -81.45629 19753 ft 371 kts 41°
2026-05-04 20:30 34.81695 -81.43368 19504 ft 369 kts 41°
2026-05-04 20:30 34.83470 -81.41094 19191 ft 370 kts 42°
2026-05-04 20:30 34.85244 -81.38820 18814 ft 371 kts 42°
2026-05-04 20:31 34.86998 -81.36569 18443 ft 371 kts 42°
2026-05-04 20:31 34.88775 -81.34284 18067 ft 371 kts 43°
2026-05-04 20:31 34.90553 -81.31998 17680 ft 370 kts 43°
2026-05-04 20:31 34.92330 -81.29713 17298 ft 370 kts 43°
2026-05-04 20:32 34.94075 -81.27469 16917 ft 369 kts 43°
2026-05-04 20:32 34.95840 -81.25198 16453 ft 368 kts 43°
2026-05-04 20:32 34.97584 -81.22950 15949 ft 365 kts 43°
2026-05-04 20:32 34.99326 -81.20705 15444 ft 362 kts 43°
2026-05-04 20:33 35.01037 -81.18499 15014 ft 357 kts 43°
2026-05-04 20:33 35.02732 -81.16312 14510 ft 352 kts 44°
2026-05-04 20:33 35.04395 -81.14162 14004 ft 343 kts 44°
2026-05-04 20:33 35.06014 -81.12070 13496 ft 335 kts 43°
2026-05-04 20:34 35.07587 -81.10033 12994 ft 329 kts 43°
2026-05-04 20:34 35.09143 -81.08025 12490 ft 323 kts 41°
2026-05-04 20:34 35.10966 -81.06540 11982 ft 308 kts 16°
2026-05-04 20:34 35.13001 -81.06136 11505 ft 295 kts 354°
2026-05-04 20:35 35.15033 -81.06280 11021 ft 291 kts 353°
2026-05-04 20:35 35.17046 -81.06448 10524 ft 288 kts 352°
2026-05-04 20:35 35.19043 -81.06623 10029 ft 286 kts 352°
2026-05-04 20:35 35.21033 -81.06800 9534 ft 285 kts 352°
2026-05-04 20:36 35.22987 -81.06973 9047 ft 283 kts 352°
2026-05-04 20:36 35.24940 -81.07147 8558 ft 283 kts 353°
2026-05-04 20:36 35.26904 -81.07323 8067 ft 282 kts 353°
2026-05-04 20:36 35.28858 -81.07496 7666 ft 278 kts 353°
2026-05-04 20:37 35.30772 -81.07666 7395 ft 270 kts 353°
2026-05-04 20:37 35.32618 -81.07830 7143 ft 262 kts 353°
2026-05-04 20:37 35.34420 -81.07987 6868 ft 257 kts 354°
2026-05-04 20:37 35.36189 -81.08141 6504 ft 257 kts 354°
2026-05-04 20:38 35.37992 -81.08298 6139 ft 257 kts 354°
2026-05-04 20:38 35.39767 -81.08451 5781 ft 257 kts 354°
2026-05-04 20:38 35.41549 -81.08604 5478 ft 250 kts 354°
2026-05-04 20:38 35.43268 -81.08750 5111 ft 244 kts 354°
2026-05-04 20:39 35.44931 -81.08858 4744 ft 240 kts
2026-05-04 20:39 35.46482 -81.08195 4369 ft 238 kts 37°
2026-05-04 20:39 35.47436 -81.06591 4075 ft 232 kts 75°
2026-05-04 20:39 35.47566 -81.04668 3975 ft 224 kts 92°
2026-05-04 20:40 35.47564 -81.02799 3940 ft 217 kts 92°
2026-05-04 20:40 35.47552 -81.00983 3932 ft 207 kts 99°
2026-05-04 20:40 35.47002 -80.99476 3946 ft 189 kts 133°
2026-05-04 20:40 35.46040 -80.98380 3952 ft 190 kts 142°
2026-05-04 20:41 35.45027 -80.97320 3955 ft 195 kts 142°
2026-05-04 20:41 35.43974 -80.96223 3955 ft 199 kts 142°
2026-05-04 20:41 35.42799 -80.95385 3947 ft 197 kts 171°
2026-05-04 20:41 35.41438 -80.95245 3958 ft 196 kts 178°
2026-05-04 20:42 35.40073 -80.95123 3952 ft 195 kts 178°
2026-05-04 20:42 35.38705 -80.95006 3776 ft 202 kts 177°
2026-05-04 20:42 35.37322 -80.94887 3538 ft 198 kts 178°
2026-05-04 20:42 35.35958 -80.94770 3292 ft 193 kts 178°
2026-05-04 20:43 35.34625 -80.94656 3046 ft 190 kts 178°
2026-05-04 20:43 35.33346 -80.94545 2823 ft 171 kts 178°
2026-05-04 20:43 35.32243 -80.94450 2584 ft 150 kts 178°
2026-05-04 20:43 35.31264 -80.94365 2394 ft 131 kts 179°
2026-05-04 20:44 35.30328 -80.94286 2239 ft 140 kts 179°
2026-05-04 20:44 35.29335 -80.94201 2055 ft 142 kts 179°
2026-05-04 20:44 35.28355 -80.94117 1870 ft 141 kts 179°
2026-05-04 20:44 35.27377 -80.94034 1686 ft 138 kts 179°
2026-05-04 20:45 35.26430 -80.93946 1496 ft 136 kts 178°
2026-05-04 20:45 35.25484 -80.93838 1304 ft 135 kts 178°
2026-05-04 20:45 35.24543 -80.93769 1148 ft 137 kts 179°
2026-05-04 20:45 35.23597 -80.93697 988 ft 136 kts 178°
2026-05-04 20:46 35.22666 -80.93627 821 ft 132 kts 178°
2026-05-04 20:46 35.21780 -80.93555 733 ft 115 kts 176°
2026-05-04 20:46 35.21160 -80.93503 723 ft 54 kts 176°
2026-05-04 20:46 35.20949 -80.93542 719 ft 11 kts 230°
2026-05-04 20:47 35.20940 -80.93571 719 ft 0 kts 261°
2026-05-04 20:48 35.20939 -80.93579 719 ft 2 kts 270°
2026-05-04 20:48 35.20949 -80.93604 719 ft 4 kts 311°
2026-05-04 20:48 35.21010 -80.93624 720 ft 13 kts 355°
2026-05-04 20:48 35.21130 -80.93634 723 ft 20 kts 356°
2026-05-04 20:49 35.21283 -80.93648 725 ft 22 kts 356°
2026-05-04 20:49 35.21440 -80.93662 728 ft 22 kts 356°
2026-05-04 20:49 35.21574 -80.93687 729 ft 15 kts 323°
2026-05-04 20:49 35.21652 -80.93797 727 ft 18 kts 309°
2026-05-04 20:50 35.21748 -80.93919 726 ft 20 kts 317°
2026-05-04 20:50 35.21845 -80.93977 727 ft 15 kts
2026-05-04 20:50 35.21933 -80.93897 728 ft 16 kts 48°
2026-05-04 20:50 35.22016 -80.93807 730 ft 14 kts
2026-05-04 20:51 35.22121 -80.93813 732 ft 15 kts 356°
2026-05-04 20:51 35.22229 -80.93806 733 ft 16 kts 355°
2026-05-04 20:51 35.22351 -80.93817 733 ft 18 kts 356°
2026-05-04 20:51 35.22447 -80.93848 733 ft 13 kts 340°
2026-05-04 20:52 35.22483 -80.93879 732 ft 1 kts 310°
2026-05-04 20:52 35.22493 -80.93909 731 ft 5 kts 286°
2026-05-04 20:52 35.22510 -80.93961 730 ft 6 kts 302°
2026-05-04 20:52 35.22517 -80.93973 730 ft 0 kts 302°